Terug naar catalogus

THORAD DELTA 1 DEB

LostSSO
NORAD 42600·DEBRIS·🇺🇸 United States

Gelanceerd Nov 15, 1974 vanaf Vandenberg Space Force Base

Loading…

Volgende Passages (komende 24 uur)

TLE

VerouderdSource: Space-Track

Epoch: Aug 22, 2016, 07:05 UTC

1 42600U 74089FR  16235.29564104  .00000089  00000-0  85552-3 0  9993
2 42600 101.5654 263.1755 0052625 320.3049  37.9026 12.51445564455756

Volg THORAD DELTA 1 DEB in realtime met AllMySat

Download on the App Store